THOR ABLESTAR DEB, 745

Orbit data source: Space-Track

THOR ABLESTAR DEB, 745 is space debris in LEO originally from a launch on Sat, 28 Sep 1963 UTC launched from the Air Force Western Test Range (AFWTR). Debris objects in space refer to the collection of defunct objects orbiting the Earth. Examples of debris include non-operational satellites, rocket bodies, and fragments generated from explosions, collisions, or faulty payload assembly.

Loading next visibility...
Identifier
745, 1963-038E
Orbit
LEO
Country
Flag of USUS
Related business
Manufacturer
Unknown
Mission
Spacecraft
Bus & Motor
Unknown
Mass
Unknown
Launch date (UTC)
1963-09-28 (62 years ago)
Launch vehicle
Unknown
Launch site
Air Force Western Test Range (AFWTR)
Object type
Payload
Rocket body
Debris
Shape & HBR
Unknown shape, 0.1 m
Radar Cross Section
Small (<0.1 m²)

Expand to show TLE details & history
Last TLE update: 10 hours ago

TLE from 10 hours ago
0 THOR ABLESTAR DEB
1   745U 63038E   25289.16953273  .00000273  00000-0  38035-3 0  9992
2   745  89.9940 336.4105 0015611 285.5190 134.8630 13.55473745 58375
Epoch: 2025-10-16T04:04Z
TLE epoch observation values (Epoch: 2025-10-16T04:04:07.627Z)
Latitude
60.59778°
Longitude
-109.5438°
Altitude
1,070.796 km
Speed
7.318 km/s
True Right ascension
22h 25m 41s
True Declination
60° 27' 24"
Sunlit
Object was in daylight at epoch
Visualization orbit readout
Latitude
Unknown
Longitude
Unknown
Altitude
Unknown
Speed
Unknown
Apparent Right ascension
Unknown
Apparent Declination
Unknown
Sunlit
N/A
Visualization observer readout
Local Sidereal Time
09:12:10
Azimuth
Unknown
Elevation
Unknown
Doppler factor
Unknown
Orbital elements
Apogee altitude
1,060.824 km
Perigee altitude
1,037.634 km
Semi-major axis
7,427.366 km
Eccentricity
0.00156
Inclination
89.994°
RAAN
336.4105°
Arg. of periapsis
285.519°
True anomaly
134.98962°
Mean anomaly
134.863°
Eccentric anomaly
134.92633°
Mean motion
3.39071 °/min
Orbital period
106.17 mins
BSTAR
0.00038035
Loading maneuver chart data...
Computing Atmospheric mass density...

Documentation

Showing up to 5 results
|